Location: Casteau
(50.5142°N, 4.0161°E)
Time: 21:02:14
(UTC+00:00)

Tiros 1 - Pass Details

Date: 09 August 2021
Orbit: 630 x 663 km, 48.4° (Epoch: 28 September)

Event Time Altitude Azimuth Distance (km) Brightness Sun altitude
Rises 14:42:01 0° 219° (SW) 2,985 11.3 40.9°
Reaches altitude 10° 14:44:35 10° 209° (SSW) 2,075 10.6 40.6°
Maximum altitude 14:48:43 29° 149° (SSE) 1,205 8.8 40.0°
Drops below altitude 10° 14:52:50 10° 90° (E) 2,075 9.4 39.4°
Sets 14:55:25 0° 79° (E) 2,985 10.1 39.0°
